Miscellaneous Local Product
Issued by NWS Hastings, NE

Home | Current Version | Previous Version | Text Only | Print | Product List | Glossary Off
Versions: 1 2 3 4 5 6 7 8 9 10 11 12 13 14 15 16 17 18 19 20 21 22 23 24 25 26 27 28 29 30 31 32 33 34 35 36 37 38 39 40 41 42 43 44 45 46 47 48 49 50

000
AXUS43 KGID 240102
MISGRI

GID CWA HOURLY WEATHER ROUNDUP
NATIONAL WEATHER SERVICE HASTINGS NE
800 PM CDT THU APR 23 2015

NOTE: "FAIR" INDICATES FEW OR NO CLOUDS BELOW 12,000 FEET WITH NO
SIGNIFICANT WEATHER AND/OR OBSTRUCTIONS TO VISIBILITY.

...SOUTH CENTRAL NEBRASKA...

CITY           SKY/WX    TMP DP  RH WIND       PRES   REMARKS
GRAND ISLAND   CLOUDY    60  38  43 S16G23    29.85S
HASTINGS       CLOUDY    61  42  49 S12       29.83F
KEARNEY        CLOUDY    61  41  48 SE15      29.82S
ORD            CLEAR     61  40  45 S14       29.78F
YORK           CLOUDY    63  32  31 S17       29.85F
AURORA         CLOUDY    61  36  39 SE12      29.85S
LEXINGTON      MOCLDY    64  46  52 SE15      29.78F
HOLDREGE       CLOUDY    61  42  48 SE17G23   29.80F
HEBRON         PTCLDY    60  37  41 SE14      29.85F

...NEBRASKA PANHANDLE...

CITY           SKY/WX    TMP DP  RH WIND       PRES   REMARKS
CHADRON        TSTM      58  45  62 MISG      29.67R
ALLIANCE       CLOUDY    62  36  37 SE21      29.67F
SCOTTSBLUFF    MOCLDY    64  38  38 SE18      29.66F
SIDNEY         CLOUDY    60  38  43 E15       29.71F

...WESTERN AND NORTH CENTRAL NEBRASKA...

CITY           SKY/WX    TMP DP  RH WIND       PRES   REMARKS
VALENTINE      MOCLDY    64  44  48 S13       29.69F
AINSWORTH      MOCLDY    63  43  48 S14       29.72F
ONEILL         MOCLDY    64  36  36 S18       29.79F
BROKEN BOW     PTCLDY    62  41  46 S16G25    29.77F
IMPERIAL       CLOUDY    63  50  62 SE21G28   29.70F
NORTH PLATTE   MOCLDY    63  48  58 SE13G22   29.73F
MCCOOK         CLOUDY    65  50  58 S20G31    29.75F

...EASTERN NEBRASKA...

CITY           SKY/WX    TMP DP  RH WIND       PRES   REMARKS
NORFOLK        PTCLDY    61  31  32 SE14      29.84F
SO SIOUX CITY  PTCLDY    61  29  29 SE10      29.88F
TEKAMAH        PTCLDY    60  33  36 SE12      29.89F
COLUMBUS       CLOUDY    63  30  29 S15G22    29.87S
ALBION         CLOUDY    64  31  29 S20G26    29.83S
OMAHA EPPLEY   PTCLDY    61  31  32 SE16      29.91F
OFFUTT AFB     PTCLDY    59  32  35 E12       29.90F
MILLARD        PTCLDY    62  32  33 SE9       29.90F
LINCOLN        CLOUDY    63  30  28 S16       29.88F
NEBRASKA CITY  CLOUDY    61  21  21 S12       29.91F
BEATRICE       MOCLDY    60  33  36 SE12      29.88F
FALLS CITY     PTCLDY    60  31  33 SE10      29.91F

...NORTHERN KANSAS...

CITY           SKY/WX    TMP DP  RH WIND       PRES   REMARKS
GOODLAND       CLOUDY    60  52  74 SE13      29.76S
HILL CITY      CLOUDY    63  50  62 S16G26    29.80F
NORTON         CLOUDY    63  46  55 SE16      29.79R
SMITH CENTER   MOCLDY    59  43  55 SE13G22   29.83S
BELOIT         CLEAR     59  39  47 SE14      29.84F
HAYS           CLOUDY    63  46  55 SE17      29.82F
RUSSELL        CLOUDY    62  47  57 SE17      29.82F
CONCORDIA      CLEAR     59  37  44 SE16      29.86F
SALINA         MOCLDY    61  44  53 SE18      29.88S
TOPEKA         MOCLDY    61  32  33 SE10      29.94S



USA.gov is the U.S. government's official web portal to all federal, state and local government web resources and services.